Location: Wild Duck Observatory
(38.2456°N, 85.2898°W)
Time: 04:36:30
(UTC-05:00)

ISS - Visible Passes

Search period start: 24 November 2017 00:00
Search period end: 04 December 2017 00:00
Orbit: 402 x 407 km, 51.6° (Epoch: 24 November)

Date Brightness Start Highest point End Pass type
(mag) Time Alt. Az. Time Alt. Az. Time Alt. Az.
24 Nov -1.4 18:42:00 10° SSE 18:42:41 12° SE 18:42:41 12° SE visible
25 Nov -2.1 19:23:54 10° SW 19:25:37 28° SSW 19:25:37 28° SSW visible
26 Nov -2.8 18:31:59 10° SSW 18:34:54 30° SE 18:35:47 26° ESE visible
27 Nov -2.9 19:15:43 10° WSW 19:18:31 45° WNW 19:18:31 45° WNW visible
28 Nov -3.9 18:23:15 10° SW 18:26:32 84° SE 18:28:30 22° NE visible
29 Nov -2.0 19:08:04 10° W 19:10:47 24° NNW 19:11:02 23° NNW visible
30 Nov -2.8 18:15:10 10° WSW 18:18:16 39° NW 18:20:52 14° NE visible
01 Dec -1.4 19:00:51 10° WNW 19:02:46 14° NNW 19:03:16 14° N visible
02 Dec -1.8 18:07:33 10° WNW 18:10:06 20° NNW 18:12:40 10° NNE visible
03 Dec -1.1 18:54:31 10° NNW 18:54:48 10° NNW 18:55:04 10° N visible
